STARLINK-3720, 52136

Orbit data source: Space-Track

STARLINK-3720, 52136 is a payload satellite owned by SpaceX/Seattle (US) in LEO that was launched on Sat, 19 Mar 2022 UTC via an FALCON 9 launch vehicle from the Air Force Eastern Test Range (AFETR). Payload-class satellites include a variety of spacecraft equipped with specific instruments for various scientific and technological missions. These include communications satellites like Starlink; space stations such as the ISS; scientific satellites like the Hubble; Earth observation satellites from companies like Planet Labs, Umbra, and HawkEye 360; GPS; miniature CubeSats for education and research; and military/defense satellites.

Loading next visibility...
Identifier
52136, 2022-029BA
Orbit
LEO
Country
Flag of USUS
Related business
Manufacturer
SpaceX/Seattle
Mission
Operational Commercial Communications
Bus & Motor
STARLINK, Unknown motor
Mass
297 kg wet, ~275 kg dry
Launch date (UTC)
2022-03-19 (4 years ago)
Launch vehicle
FALCON 9
Launch site
Air Force Eastern Test Range (AFETR)
Object type
Payload
Rocket body
Debris
Shape & HBR
Box + 1 Pan, 10.1 m
Radar Cross Section
13.562 m², Large (>1 m²)

Expand to show TLE details & history
Last TLE update: 2 days ago

TLE from 2 days ago
0 STARLINK-3720
1 52136U 22029BA  26171.46867439 -.00000798  00000-0 -32063-4 0  9990
2 52136  53.1596 327.6097 0001110  83.9488 276.1630 15.08840868236458
Epoch: 2026-06-20T11:14Z
TLE epoch observation values (Epoch: 2026-06-20T11:14:53.467Z)
Latitude
-0°
Longitude
-109.79594°
Altitude
540.55 km
Speed
7.593 km/s
True Right ascension
21h 50m 26s
True Declination
0° 00' 00"
Sunlit
Object was in full shadow at epoch
Visualization orbit readout
Latitude
Unknown
Longitude
Unknown
Altitude
Unknown
Speed
Unknown
Apparent Right ascension
Unknown
Apparent Declination
Unknown
Sunlit
N/A
Visualization observer readout
Local Sidereal Time
21:23:46
Azimuth
Unknown
Elevation
Unknown
Doppler factor
Unknown
Orbital elements
Apogee altitude
540.763 km
Perigee altitude
539.227 km
Semi-major axis
6,918.132 km
Eccentricity
0.00011
Inclination
53.1596°
RAAN
327.6097°
Arg. of periapsis
83.9488°
True anomaly
276.15035°
Mean anomaly
276.163°
Eccentric anomaly
276.15668°
Mean motion
3.7719 °/min
Orbital period
95.44 mins
BSTAR
-0.000032063
Loading maneuver chart data...
Computing Atmospheric mass density...
Loading historical data...
Loading historical data...
Loading historical data...
Loading historical data...
Loading historical data...
Loading historical data...
Loading historical data...

Documentation

Showing up to 5 results
|